Flag for Brazil Weather past 2 weeks in Cuiabá, Mato Grosso, Brazil

Now
88 °F

Sunny.


Feels Like: 93 °F
Forecast: 74 / 97 °F
Wind: 5 mph from North

Location: Cuiaba Aeroporto

Current Time: Sep 23, 2014 at 8:30:47 AM

Latest Report: Sep 23, 2014 at 8:00 AM


Visibility: 10 mi

Pressure: 29.89 "Hg

Humidity: 55%

Dew point: 70 °F

Location of CuiabáLocation

Historic Weather in Cuiabá — Graph

°F

Cuiabá temperature yesterday

Maximum temperature yesterday: 97 °F (at 3:00 PM)
Minimum temperature yesterday: 73 °F (at 4:00 AM)
Average temperature yesterday: 85 °F

Past Weeks' High & Low Weather Summary

 TemperatureHumidityPressure
High104 °F (Sep 14, 3:00 PM)89% (Sep 9, 5:00 AM)30.04 "Hg (Sep 9, 5:00 AM)
Low72 °F (Sep 9, 6:00 AM)17% (Sep 9, 1:00 PM)29.74 "Hg (Sep 12, 3:00 PM)
Average86 °F53%29.88 "Hg
* Reported Sep 8 7:00 AM — Sep 23 7:00 AM, Cuiabá, Weather by CustomWeather, © 2014

Note: Actual official high and low records may vary slightly from our data, if they occured in-between our weather recording intervals... More about our weather records

Advertising

Cuiabá weather history for previous 24 hours

 ConditionsComfort  
Time TempWeatherWind HumidityBarometerVisibility
7:00 AM
Sep 23
79 °FSunny.6 mph74%29.83 "Hg10 mi
6:00 AM79 °FSunny.5 mph74%29.86 "Hg10 mi
5:00 AM77 °FClear.2 mph79%29.83 "Hg10 mi
4:00 AM79 °FClear.6 mph74%29.83 "Hg10 mi
3:00 AM79 °FClear.6 mph74%29.83 "Hg10 mi
2:00 AM81 °FClear.2 mph70%29.83 "Hg10 mi
1:00 AM79 °FClear.6 mph74%29.83 "Hg10 mi
12:00 AM81 °FClear.No wind70%29.86 "Hg10 mi
11:00 PM
Sep 22
84 °FClear.2 mph58%29.86 "Hg10 mi
10:00 PM86 °FClear.No wind55%29.86 "Hg10 mi
9:00 PM86 °FClear.3 mph55%29.86 "Hg10 mi
8:00 PM86 °FPassing clouds.2 mph55%29.83 "HgN/A
7:00 PM88 °FPassing clouds.3 mph49%29.83 "HgN/A
6:00 PM91 °FPassing clouds.No wind41%29.80 "HgN/A
5:00 PM97 °FPassing clouds.No wind32%29.80 "HgN/A
4:00 PM97 °FSunny.6 mph34%29.80 "Hg10 mi
3:00 PM97 °FSunny.6 mph32%29.80 "Hg10 mi
2:00 PM95 °FSunny.7 mph36%29.83 "Hg10 mi
1:00 PM95 °FSunny.7 mph36%29.89 "Hg10 mi
12:00 PM93 °FSunny.5 mph39%29.92 "Hg10 mi
11:00 AM90 °FSunny.3 mph43%29.95 "Hg10 mi
10:00 AM86 °FSunny.3 mph49%29.98 "Hg10 mi
9:00 AM81 °FSunny.No wind54%29.98 "Hg10 mi
8:00 AM79 °FSunny.6 mph58%29.98 "Hg10 mi
Weather by CustomWeather, © 2014

See weather overviewHow to use our weather pages